Location: Albany
(35.0170°S, 117.8920°E)
Time: 14:27:43
(UTC+08:00)

deb Explorer IX - All Passes

Search period start: 28 January 2021 00:00
Search period end: 07 February 2021 00:00
Orbit: 536 x 1104 km, 38.8° (Epoch: 27 January)

Date Brightness Start Highest point End Pass type
(mag) Time Alt. Az. Time Alt. Az. Time Alt. Az.
28 Jan - 03:22:53 10° NW 03:26:44 36° NNE 03:31:01 10° E visible
28 Jan - 05:08:52 10° W 05:13:19 71° SSW 05:18:32 10° ESE daylight
28 Jan - 06:55:42 10° WSW 07:00:35 58° S 07:06:21 10° E daylight
28 Jan - 08:42:20 10° WSW 08:47:50 83° NNW 08:54:18 10° ENE daylight
28 Jan - 10:29:31 10° W 10:34:45 31° NNW 10:40:36 10° NNE daylight
29 Jan - 02:59:22 10° NW 03:03:09 36° NNE 03:07:17 10° E visible
29 Jan - 04:45:23 10° W 04:49:43 71° SSW 04:54:44 10° ESE visible
29 Jan - 06:32:12 10° WSW 06:36:55 57° S 06:42:29 10° E daylight
29 Jan - 08:18:48 10° WSW 08:24:07 83° NNW 08:30:25 10° ENE daylight
29 Jan - 10:05:57 10° W 10:11:00 30° NNW 10:16:40 10° NNE daylight
30 Jan - 02:35:50 10° NW 02:39:35 35° NNE 02:43:36 10° E visible
30 Jan - 04:21:52 10° W 04:26:08 70° SSW 04:30:58 10° ESE visible
30 Jan - 06:08:42 10° WSW 06:13:17 56° S 06:18:39 10° E daylight
30 Jan - 07:55:17 10° WSW 08:00:25 83° NNW 08:06:32 10° ENE daylight
30 Jan - 09:42:24 10° W 09:47:16 29° NNW 09:52:44 10° NNE daylight
31 Jan - 02:12:17 10° NW 02:16:00 35° NNE 02:19:56 10° E visible
31 Jan - 03:58:22 10° W 04:02:32 69° SSW 04:07:13 10° ESE visible
31 Jan - 05:45:12 10° WSW 05:49:39 55° S 05:54:49 10° E daylight
31 Jan - 07:31:45 10° WSW 07:36:45 82° NNW 07:42:38 10° ENE daylight
31 Jan - 09:18:52 10° W 09:23:32 28° NNW 09:28:48 10° NNE daylight
01 Feb - 01:48:43 10° NW 01:52:26 35° NNE 01:56:17 10° E visible
01 Feb - 03:34:50 10° W 03:38:57 68° SSW 03:43:29 10° ESE visible
01 Feb - 05:21:43 10° WSW 05:26:02 54° S 05:31:01 10° E daylight
01 Feb - 07:08:15 10° WSW 07:13:04 82° NNW 07:18:47 10° ENE daylight
01 Feb - 08:55:21 10° W 08:59:49 27° NNW 09:04:52 10° NNE daylight
02 Feb - 01:25:07 10° NW 01:28:51 35° NNE 01:32:39 10° E visible
02 Feb - 03:11:18 10° W 03:15:23 68° SSW 03:19:48 10° ESE visible
02 Feb - 04:58:12 10° WSW 05:02:25 53° S 05:07:13 10° E visible
02 Feb - 06:44:44 10° WSW 06:49:25 81° NNW 06:54:55 10° ENE daylight
02 Feb - 08:31:51 10° W 08:36:07 26° NNW 08:40:57 10° NNE daylight
03 Feb - 01:01:31 10° NW 01:05:17 35° NNE 01:09:02 10° E night (unlit)
03 Feb - 02:47:44 10° W 02:51:48 67° SSW 02:56:06 10° ESE visible
03 Feb - 04:34:40 10° WSW 04:38:49 52° S 04:43:27 10° E visible
03 Feb - 06:21:13 10° WSW 06:25:46 81° NNW 06:31:04 10° ENE daylight
03 Feb - 08:08:21 10° W 08:12:26 25° NNW 08:17:01 10° NNE daylight
04 Feb - 00:37:51 10° NW 00:41:42 36° NNE 00:45:27 10° E night (unlit)
04 Feb - 02:24:10 10° W 02:28:13 67° SSW 02:32:26 10° ESE visible
04 Feb - 04:11:09 10° WSW 04:15:13 52° S 04:19:42 10° E visible
04 Feb - 05:57:42 10° WSW 06:02:08 80° NNW 06:07:15 10° ENE daylight
04 Feb - 07:44:52 10° W 07:48:45 24° NNW 07:53:07 10° NNE daylight
05 Feb - 00:14:11 10° NW 00:18:06 36° NNE 00:21:52 10° E night (unlit)
05 Feb - 02:00:35 10° W 02:04:39 66° SSW 02:08:47 10° ESE visible
05 Feb - 03:47:36 10° WSW 03:51:37 51° S 03:55:59 10° E visible
05 Feb - 05:34:11 10° WSW 05:38:31 79° NNW 05:43:27 10° ENE daylight
05 Feb - 07:21:22 10° W 07:25:05 23° NNW 07:29:12 10° NNE daylight
05 Feb - 23:50:29 10° NW 23:54:31 37° NNE 23:58:18 10° E night (unlit)
06 Feb - 01:36:57 10° W 01:41:04 66° SSW 01:45:10 10° ESE visible
06 Feb - 03:24:03 10° WSW 03:28:02 50° S 03:32:17 10° E visible
06 Feb - 05:10:39 10° WSW 05:14:54 79° NNW 05:19:40 10° ENE daylight
06 Feb - 06:57:53 10° W 07:01:25 22° NNW 07:05:19 10° NNE daylight
06 Feb - 23:26:45 10° NW 23:30:55 38° NNE 23:34:46 10° E night (unlit)
